• In Österreich
  • Länderverzeichnis
  • Für 7 Tage
  • Wassertemperatur
  • Satellitenkarten
  • Wetterkarte
  • News
  • Widgets
  • user-avatar
    Anmelden

    Stündliche Wetter Zelenaya Niva

    Heute, 15 August, Mittwoch

    Zeit Temperatur Niederschläge Wind Luftdruck Luftfeuchtigkeit
    00:00 +14°C° 0 mm 1 m/S 745 mmHg 86%
    01:00 +14°C° 0 mm 2 m/S 745 mmHg 87%
    02:00 +14°C° 0 mm 2 m/S 745 mmHg 88%
    03:00 +14°C° 0,1 mm 2 m/S 744 mmHg 90%
    04:00 +15°C° 0,1 mm 2 m/S 744 mmHg 91%
    05:00 +15°C° 0,1 mm 2 m/S 744 mmHg 93%
    06:00 +16°C° 0,6 mm 2 m/S 743 mmHg 93%
    07:00 +17°C° 0,6 mm 2 m/S 743 mmHg 93%
    08:00 +18°C° 0,6 mm 3 m/S 743 mmHg 94%
    09:00 +19°C° 0,9 mm 3 m/S 742 mmHg 92%
    10:00 +20°C° 0,9 mm 3 m/S 742 mmHg 91%
    11:00 +21°C° 0,9 mm 2 m/S 742 mmHg 89%
    12:00 +21°C° 1,6 mm 3 m/S 741 mmHg 89%
    13:00 +22°C° 1,6 mm 3 m/S 741 mmHg 88%
    14:00 +22°C° 1,6 mm 3 m/S 741 mmHg 87%
    15:00 +22°C° 0,9 mm 3 m/S 741 mmHg 88%
    16:00 +21°C° 0,9 mm 3 m/S 741 mmHg 89%
    17:00 +21°C° 0,9 mm 3 m/S 741 mmHg 90%
    18:00 +20°C° 0,5 mm 2 m/S 742 mmHg 92%
    19:00 +19°C° 0,5 mm 2 m/S 742 mmHg 95%
    20:00 +18°C° 0,5 mm 2 m/S 742 mmHg 97%
    21:00 +17°C° 0,1 mm 2 m/S 743 mmHg 97%
    22:00 +16°C° 0,1 mm 2 m/S 743 mmHg 98%
    23:00 +16°C° 0,1 mm 2 m/S 743 mmHg 98%

    Morgen, 16 August, Donnerstag

    Zeit Temperatur Niederschläge Wind Luftdruck Luftfeuchtigkeit
    00:00 +16°C° 0 mm 1 m/S 744 mmHg 98%
    01:00 +15°C° 0 mm 1 m/S 744 mmHg 98%
    02:00 +15°C° 0 mm 1 m/S 744 mmHg 98%
    03:00 +15°C° 0 mm 1 m/S 745 mmHg 98%
    04:00 +15°C° 0 mm 1 m/S 745 mmHg 98%
    05:00 +14°C° 0 mm 1 m/S 745 mmHg 98%
    06:00 +15°C° 0 mm 1 m/S 746 mmHg 95%
    07:00 +16°C° 0 mm 1 m/S 746 mmHg 92%
    08:00 +18°C° 0 mm 1 m/S 746 mmHg 90%
    09:00 +19°C° 0 mm 1 m/S 747 mmHg 83%
    10:00 +20°C° 0 mm 1 m/S 747 mmHg 77%
    11:00 +21°C° 0 mm 1 m/S 747 mmHg 70%
    12:00 +21°C° 0 mm 1 m/S 747 mmHg 66%
    13:00 +21°C° 0 mm 2 m/S 747 mmHg 62%
    14:00 +23°C° 0 mm 2 m/S 747 mmHg 57%
    15:00 +23°C° 0 mm 2 m/S 748 mmHg 59%
    16:00 +23°C° 0 mm 2 m/S 748 mmHg 61%
    17:00 +23°C° 0 mm 1 m/S 748 mmHg 63%
    18:00 +20°C° 0 mm 1 m/S 748 mmHg 70%
    19:00 +18°C° 0 mm 1 m/S 749 mmHg 77%
    20:00 +15°C° 0 mm 1 m/S 749 mmHg 83%
    21:00 +15°C° 0 mm 1 m/S 749 mmHg 85%
    22:00 +14°C° 0 mm 1 m/S 749 mmHg 87%
    23:00 +14°C° 0 mm 1 m/S 750 mmHg 90%

    übermorgen, 17 August, Freitag

    Zeit Temperatur Niederschläge Wind Luftdruck Luftfeuchtigkeit
    00:00 +13°C° 0 mm 1 m/S 750 mmHg 91%
    01:00 +13°C° 0 mm 1 m/S 750 mmHg 92%
    02:00 +13°C° 0 mm 1 m/S 751 mmHg 92%
    03:00 +12°C° 0 mm 1 m/S 751 mmHg 92%
    04:00 +12°C° 0 mm 1 m/S 751 mmHg 92%
    05:00 +12°C° 0 mm 1 m/S 751 mmHg 92%
    06:00 +14°C° 0 mm 1 m/S 752 mmHg 84%
    07:00 +18°C° 0 mm 1 m/S 752 mmHg 76%
    08:00 +20°C° 0 mm 1 m/S 752 mmHg 68%
    09:00 +21°C° 0 mm 1 m/S 752 mmHg 62%
    10:00 +21°C° 0 mm 2 m/S 752 mmHg 56%
    11:00 +24°C° 0 mm 2 m/S 752 mmHg 51%
    12:00 +24°C° 0 mm 2 m/S 752 mmHg 49%
    13:00 +25°C° 0 mm 2 m/S 752 mmHg 47%
    14:00 +25°C° 0 mm 2 m/S 752 mmHg 46%
    15:00 +25°C° 0 mm 2 m/S 752 mmHg 51%
    16:00 +24°C° 0 mm 1 m/S 752 mmHg 55%
    17:00 +24°C° 0 mm 1 m/S 751 mmHg 60%
    18:00 +22°C° 0 mm 1 m/S 752 mmHg 67%
    19:00 +18°C° 0 mm 2 m/S 752 mmHg 74%
    20:00 +16°C° 0 mm 2 m/S 752 mmHg 81%
    21:00 +15°C° 0 mm 2 m/S 752 mmHg 82%
    22:00 +15°C° 0 mm 2 m/S 752 mmHg 84%
    23:00 +14°C° 0 mm 2 m/S 752 mmHg 86%

    18 August, Samstag

    Zeit Temperatur Niederschläge Wind Luftdruck Luftfeuchtigkeit
    00:00 +13°C° 0 mm 2 m/S 752 mmHg 86%
    01:00 +13°C° 0 mm 1 m/S 752 mmHg 87%
    02:00 +13°C° 0 mm 1 m/S 752 mmHg 88%
    03:00 +13°C° 0 mm 1 m/S 752 mmHg 89%
    04:00 +13°C° 0 mm 1 m/S 752 mmHg 90%
    05:00 +12°C° 0 mm 1 m/S 753 mmHg 92%
    06:00 +15°C° 0 mm 1 m/S 753 mmHg 85%
    07:00 +17°C° 0 mm 2 m/S 753 mmHg 78%
    08:00 +19°C° 0 mm 2 m/S 753 mmHg 71%
    09:00 +21°C° 0 mm 2 m/S 753 mmHg 65%
    10:00 +23°C° 0 mm 2 m/S 752 mmHg 58%
    11:00 +25°C° 0 mm 3 m/S 752 mmHg 52%
    12:00 +25°C° 0 mm 3 m/S 752 mmHg 51%
    13:00 +26°C° 0 mm 3 m/S 752 mmHg 50%
    14:00 +26°C° 0 mm 3 m/S 751 mmHg 48%
    15:00 +26°C° 0 mm 2 m/S 751 mmHg 53%
    16:00 +25°C° 0 mm 2 m/S 751 mmHg 57%
    17:00 +25°C° 0 mm 2 m/S 751 mmHg 62%
    18:00 +23°C° 0 mm 2 m/S 751 mmHg 69%
    19:00 +20°C° 0 mm 2 m/S 751 mmHg 76%
    20:00 +18°C° 0 mm 2 m/S 751 mmHg 82%
    21:00 +17°C° 0 mm 2 m/S 751 mmHg 84%
    22:00 +17°C° 0 mm 2 m/S 751 mmHg 86%
    23:00 +16°C° 0 mm 2 m/S 751 mmHg 88%

    19 August, Sonntag

    Zeit Temperatur Niederschläge Wind Luftdruck Luftfeuchtigkeit
    00:00 +15°C° 0 mm 2 m/S 750 mmHg 89%
    01:00 +15°C° 0 mm 2 m/S 750 mmHg 90%
    02:00 +15°C° 0 mm 2 m/S 750 mmHg 91%
    03:00 +14°C° 0 mm 2 m/S 750 mmHg 92%
    04:00 +14°C° 0 mm 2 m/S 750 mmHg 92%
    05:00 +14°C° 0 mm 2 m/S 750 mmHg 92%
    06:00 +16°C° 0 mm 3 m/S 750 mmHg 84%
    07:00 +18°C° 0 mm 3 m/S 750 mmHg 76%
    08:00 +19°C° 0 mm 4 m/S 750 mmHg 68%
    09:00 +21°C° 0 mm 4 m/S 749 mmHg 63%
    10:00 +22°C° 0 mm 4 m/S 749 mmHg 58%
    11:00 +25°C° 0 mm 5 m/S 749 mmHg 53%
    12:00 +25°C° 0 mm 5 m/S 748 mmHg 53%
    13:00 +25°C° 0 mm 5 m/S 748 mmHg 52%
    14:00 +26°C° 0 mm 5 m/S 747 mmHg 52%
    15:00 +25°C° 0,2 mm 4 m/S 747 mmHg 57%
    16:00 +23°C° 0,2 mm 4 m/S 747 mmHg 62%
    17:00 +23°C° 0,2 mm 4 m/S 746 mmHg 66%
    18:00 +21°C° 0,6 mm 3 m/S 746 mmHg 73%
    19:00 +20°C° 0,6 mm 3 m/S 746 mmHg 80%
    20:00 +18°C° 0,6 mm 2 m/S 746 mmHg 87%
    21:00 +18°C° 0,4 mm 2 m/S 746 mmHg 89%
    22:00 +17°C° 0,4 mm 2 m/S 746 mmHg 92%
    23:00 +17°C° 0,4 mm 2 m/S 746 mmHg 94%

    20 August, Montag

    Zeit Temperatur Niederschläge Wind Luftdruck Luftfeuchtigkeit
    00:00 +16°C° 0,2 mm 2 m/S 746 mmHg 95%
    01:00 +16°C° 0,2 mm 2 m/S 746 mmHg 96%
    02:00 +15°C° 0,2 mm 1 m/S 746 mmHg 98%
    03:00 +15°C° 0 mm 2 m/S 746 mmHg 98%
    04:00 +15°C° 0 mm 2 m/S 746 mmHg 98%
    05:00 +15°C° 0 mm 2 m/S 746 mmHg 98%
    06:00 +15°C° 0 mm 2 m/S 746 mmHg 95%
    07:00 +16°C° 0 mm 2 m/S 747 mmHg 92%
    08:00 +17°C° 0 mm 2 m/S 747 mmHg 90%
    09:00 +18°C° 0,1 mm 2 m/S 747 mmHg 81%
    10:00 +19°C° 0,1 mm 3 m/S 747 mmHg 72%
    11:00 +20°C° 0,1 mm 3 m/S 747 mmHg 64%
    12:00 +20°C° 0 mm 3 m/S 747 mmHg 61%
    13:00 +21°C° 0 mm 3 m/S 747 mmHg 59%
    14:00 +21°C° 0 mm 3 m/S 747 mmHg 57%
    15:00 +21°C° 0 mm 3 m/S 747 mmHg 59%
    16:00 +20°C° 0 mm 2 m/S 747 mmHg 60%
    17:00 +20°C° 0 mm 2 m/S 747 mmHg 62%
    18:00 +18°C° 0 mm 2 m/S 747 mmHg 69%
    19:00 +17°C° 0 mm 2 m/S 747 mmHg 75%
    20:00 +15°C° 0 mm 1 m/S 747 mmHg 82%
    21:00 +14°C° 0 mm 1 m/S 748 mmHg 83%
    22:00 +14°C° 0 mm 1 m/S 748 mmHg 85%
    23:00 +13°C° 0 mm 1 m/S 748 mmHg 86%
    Mehr zeigen